This is the latest recevied weather packets stored in our database for station/object KE4EST. If no packets are shown the sender has not sent any weather packets the latest 10 day(s).
| Time | Temp. | Humidity | Pressure | Rain* | Wind** | Luminosity | Snow |
|---|---|---|---|---|---|---|---|
| 1777721707 | 9.44° C | 81% | 1013.4 hPa | 0 mm | - | 14 W/m² | - |
| 1777721406 | 9.44° C | 80% | 1013.5 hPa | 0 mm | - | 16 W/m² | - |
| 1777721103 | 9.44° C | 80% | 1013.1 hPa | 0 mm | - | 10 W/m² | - |
| 1777720800 | 9.44° C | 81% | 1013 hPa | 0 mm | - | 13 W/m² | - |
| 1777720497 | 8.89° C | 79% | 1012.6 hPa | 0 mm | - | 11 W/m² | - |
| 1777720195 | 8.89° C | 80% | 1012.8 hPa | 0 mm | - | 8 W/m² | - |
| 1777719892 | 9.44° C | 80% | 1013.1 hPa | 0 mm | - | 4 W/m² | - |
| 1777719589 | 9.44° C | 79% | 1013 hPa | 0 mm | - | 3 W/m² | - |
| 1777719287 | 9.44° C | 79% | 1013.2 hPa | 0 mm | - | 2 W/m² | - |
| 1777718985 | 9.44° C | 80% | 1013.1 hPa | 0 mm | - | 1 W/m² | - |
| 1777718682 | 9.44° C | 79% | 1012.8 hPa | 0 mm | - | 1 W/m² | - |
| 1777718379 | 9.44° C | 80% | 1012.9 hPa | 0 mm | - | 0 W/m² | - |
| 1777718076 | 9.44° C | 80% | 1012.6 hPa | 0 mm | - | 0 W/m² | - |
| 1777717773 | 9.44° C | 80% | 1012.7 hPa | 0 mm | - | 0 W/m² | - |
| 1777717470 | 9.44° C | 80% | 1013 hPa | 0 mm | - | 0 W/m² | - |
| 1777717167 | 9.44° C | 79% | 1012.7 hPa | 0 mm | - | 0 W/m² | - |
| 1777716865 | 9.44° C | 80% | 1012.6 hPa | 0 mm | - | 0 W/m² | - |
| 1777716563 | 10° C | 79% | 1013 hPa | 0 mm | - | 0 W/m² | - |
| 1777716262 | 10° C | 80% | 1013.2 hPa | 0 mm | - | 0 W/m² | - |
| 1777715959 | 9.44° C | 79% | 1012.8 hPa | 0 mm | - | 0 W/m² | - |
| 1777715657 | 10° C | 80% | 1012.9 hPa | 0 mm | - | 0 W/m² | - |
| 1777715355 | 10° C | 82% | 1012.9 hPa | 0 mm | - | 0 W/m² | - |
| 1777715052 | 10° C | 81% | 1012.8 hPa | 0 mm | - | 0 W/m² | - |
| 1777714750 | 10° C | 79% | 1012.8 hPa | 0 mm | - | 0 W/m² | - |
| 1777714449 | 10° C | 79% | 1012.9 hPa | 0 mm | - | 0 W/m² | - |
* Rain latest hour (hover to see other rain measurements)
** Current wind speed in m/s (hover to see current wind gust speed)